Location: Moriano
(43.7333°N, 11.4167°E)
Time: 06:41:17
(UTC+00:00)

Daily predictions for brighter satellites

Satellite Brightness Start Highest point End
(mag) Time Altitude Azimuth Time Altitude Azimuth Time Altitude Azimuth
Meteor 2-9 Rocket 4.4 17:37:49 10° S 17:43:32 58° E 17:49:12 10° NNE
Cosmos 1844 Rocket 4.1 17:42:16 10° SE 17:45:20 15° E 17:48:25 10° ENE
Cosmos 2084 Rocket 3.6 17:41:51 10° NW 17:46:18 71° NE 17:50:49 10° SE
HJ-1C 4.0 17:48:02 10° SE 17:51:03 35° ENE 17:54:07 10° N
Cosmos 2227 4.3 17:45:21 10° SSW 17:51:06 87° ESE 17:56:52 10° NNE
Cosmos 1975 Rocket 3.2 17:48:24 10° N 17:52:37 49° ENE 17:56:48 10° SSE
Cosmos 1898 Rocket 3.5 17:48:45 10° SSW 17:53:56 88° WNW 17:59:09 10° NNE
ATLAS CENTAUR R/B 4.4 17:54:51 10° NW 17:55:21 10° NW 17:55:52 10° NNW
Cosmos 1943 3.2 17:50:36 10° NNW 17:56:16 75° ENE 18:01:55 10° SSE
COSMO-SKYMED 1 3.8 17:52:30 10° N 17:56:41 47° WNW 18:00:51 10° SW
USA 234 4.3 17:54:35 10° ENE 17:59:36 23° SE 18:04:35 10° S
Cosmos 1867 3.9 17:57:44 10° NNW 18:03:05 50° NE 18:08:21 10° SE
Cosmos 858 Rocket 4.5 18:00:54 10° SSW 18:06:08 86° ESE 18:11:23 10° NNE
CSL-04 Debris 4.1 18:01:29 10° SSE 18:06:52 80° ENE 18:12:17 10° NNW
Lacrosse 5 rocket 3.7 18:04:10 10° WNW 18:07:29 21° NNW 18:10:55 10° NNE
Cosmos 372 Rocket 4.3 18:03:33 10° S 18:08:29 44° ESE 18:13:26 10° NNE
Sich 1 Rocket 3.7 18:05:54 10° S 18:10:17 57° E 18:14:44 10° NNE
Cosmos 807 4.5 18:11:41 10° S 18:14:45 78° W 18:18:23 10° N
Meteor 1-21 4.2 18:09:11 10° N 18:14:49 88° W 18:20:24 10° S
CSL-04 Rocket 3.7 18:09:54 10° SSE 18:15:18 89° ENE 18:20:50 10° NNW
MOS 1 Rocket 3.1 18:10:59 10° NNE 18:15:23 57° E 18:19:37 10° S
Cosmos 1603 4.1 18:11:08 10° NNW 18:16:45 66° WSW 18:22:17 10° SSE
SJ 16-02 3.8 18:14:52 10° WSW 18:18:31 25° WNW 18:22:11 10° N
OBJECT-B 3.0 18:19:21 12° ENE 18:19:21 12° ENE 18:20:26 10° NE
Cosmos 1937 Rocket 3.9 18:16:50 10° SSW 18:22:05 69° WNW 18:27:18 10° NNE
Cosmos 1125 Rocket 4.4 18:22:17 10° SSE 18:26:39 27° E 18:31:02 10° NE
Okean 2 Rocket 3.1 18:24:26 10° S 18:28:50 57° E 18:33:14 10° NNE
Abrixas rocket 3.3 18:27:35 10° WNW 18:30:11 31° N 18:31:44 18° NE
Cosmos 1464 Rocket 3.9 18:24:20 10° S 18:30:22 66° E 18:36:29 10° NNE
Okean 1 Rocket 4.4 18:31:11 20° E 18:31:11 20° E 18:34:12 10° NE
SL-08 RB Rocket 3.8 18:26:43 10° SSE 18:31:12 55° ENE 18:35:40 10° N
NOSS 2-2 (E) 3.5 18:28:01 10° SW 18:31:29 63° NW 18:35:21 10° NNE
ATLAS 2AS CENTAUR R/B 3.9 18:31:07 10° SSE 18:36:51 22° ESE 18:42:36 10° ENE
Cosmos 1300 Rocket 3.5 18:33:05 10° S 18:37:26 68° E 18:41:51 10° NNE
CZ-2C R/B 2.6 18:36:43 10° SW 18:39:20 19° S 18:39:59 18° SSE
NOSS 2-2 (D) 3.4 18:36:41 10° SW 18:40:09 66° NW 18:43:59 10° NNE
USA 102 3.5 18:38:58 19° SSE 18:43:45 72° ENE 18:45:14 27° N
BREEZE-M R/B 4.3 18:33:03 10° WSW 18:46:40 88° NNW 18:48:53 24° ENE
CENTAUR R/B 3.6 18:39:25 10° NNW 18:47:02 46° NE 18:51:58 24° ESE
H-2A R/B 2.7 18:43:26 10° S 18:48:15 55° W 18:53:13 10° NNW
Cosmos 1174 4.5 18:43:48 10° SSW 18:48:33 67° ESE 18:54:37 10° NE
CZ-4 R/B 4.2 18:46:36 10° SW 18:49:44 20° W 18:52:53 10° NW
Cosmos 1674 3.2 18:48:35 10° N 18:52:10 37° ENE 18:52:10 37° ENE
Exosat Rocket 3.9 18:47:59 10° S 18:53:27 43° ESE 18:58:12 10° NE
ATLAS 3B R/B 4.2 18:48:20 10° NNW 18:53:29 22° NNE 18:56:56 16° ENE
ISS -3.4 18:51:34 10° WSW 18:54:55 63° NNW 18:56:09 34° NE
Cosmos 1048 Rocket 4.1 18:50:23 10° NNW 18:55:40 60° ENE 18:58:02 32° SE
Cosmos 1536 Rocket 3.5 18:52:19 10° N 18:56:46 71° E 18:58:59 29° SSE
USA 238 DEB 3.9 18:51:24 10° NNW 18:58:35 65° NE 19:02:30 30° ESE
USA 238 3.9 18:51:30 10° NNW 18:58:41 64° NE 19:02:35 30° ESE
In-Cosmos 22 4.1 18:54:04 10° NNW 18:59:23 85° W 19:04:25 12° S
ARGOS 3.7 18:56:30 10° S 19:01:45 57° W 19:07:03 10° NNW
Meteor 1-24 Rocket 4.4 18:59:41 10° N 19:04:36 32° ENE 19:04:56 32° ENE
CZ-2C R/B 2.6 19:01:05 10° NNE 19:06:40 84° ESE 19:12:16 10° SSW
Cosmos 1025 Rocket 3.3 19:02:22 10° NNW 19:06:44 67° W 19:10:02 17° S
Cosmos 1707 4.2 19:06:19 10° NNW 19:09:53 37° W 19:13:25 10° SSW
Cosmos 2151 Rocket 3.8 19:05:51 10° SSW 19:10:17 73° W 19:14:47 10° N
KORONAS-FOTON 3.8 19:09:54 10° N 19:13:36 65° ENE 19:13:36 65° ENE
USA 186 2.9 19:13:02 31° SW 19:13:57 40° W 19:17:01 10° NNW
Ariane Rocket 3.3 19:12:56 18° S 19:16:41 67° WSW 19:21:45 10° NNW
SJ-6B 3.0 19:16:15 46° SSW 19:17:09 64° W 19:20:53 10° NNW
Cosmos 1844 3.5 19:14:03 10° SSW 19:19:44 74° ESE 19:25:23 10° NNE
Nadezhda 4 Rocket 4.1 19:18:14 10° NNW 19:24:20 72° W 19:29:17 16° S
Cosmos 494 Rocket 3.9 19:20:07 10° NNW 19:25:23 70° ENE 19:26:06 61° ESE
NOSS 3-2 (A) 4.0 19:18:43 10° NW 19:26:21 87° SW 19:30:19 36° SSE
Cosmos 2034 Rocket 4.4 19:21:44 10° SSW 19:28:02 65° W 19:34:23 10° N
Cosmos 1844 Rocket 2.7 19:22:55 10° SSW 19:28:28 77° WNW 19:34:06 10° NNE
SPOT 3 Rocket 3.4 19:32:57 68° SE 19:33:36 81° ENE 19:38:46 10° NNW
Resurs 01 Rocket 2.1 19:42:54 52° N 19:42:54 52° N 19:46:23 10° N
USA 234 3.1 19:37:13 13° NE 19:43:11 84° SE 19:49:45 10° SW
Lacrosse 5 rocket 4.0 19:45:34 10° NNW 19:48:06 15° N 19:49:28 13° NNE
OBJECT-B 3.3 19:52:33 22° NW 19:52:33 22° NW 19:54:04 10° NNW
Cosmos 1833 Rocket 3.8 19:47:11 10° N 19:51:25 32° NE 19:51:25 32° NE
Cosmos 1626 4.4 19:54:44 10° N 19:56:03 21° N 19:56:03 21° N
ARIANE 5 R/B 4.2 20:01:02 29° N 20:01:02 29° N 20:03:14 10° N
Cosmos 1634 Rocket 3.9 19:59:03 53° SSW 20:00:37 80° W 20:06:50 10° N
NOSS 3-2 (C) 4.0 19:53:31 10° NW 20:01:10 83° WSW 20:03:03 59° SSE
BREEZE-M TANK 3.4 19:59:16 10° W 20:04:38 53° WNW 20:04:38 53° WNW
Okean 1 Rocket 4.4 20:08:18 38° W 20:08:32 38° WNW 20:12:45 10° N
ATLAS 2AS CENTAUR R/B 2.9 20:19:01 10° SW 20:26:58 88° NW 20:34:55 10° NE
Cosmos 2082 Rocket 3.6 20:29:09 10° NNW 20:32:16 29° N 20:32:16 29° N
CENTAUR R/B 3.5 20:30:07 10° NW 20:38:10 58° WSW 20:39:10 55° SW
COSMOS 2406 4.3 20:39:27 10° NNW 20:43:10 42° NW 20:43:10 42° NW
ATLAS 3B R/B 3.1 20:38:32 10° NNW 20:44:10 58° N 20:44:10 58° N
Terra 4.3 21:02:36 17° N 21:02:36 17° N 21:03:38 10° N
USA 234 4.3 21:24:44 38° N 21:25:51 40° NNW 21:31:51 10° W
